Weather History for KVGT - July, 2013

Change the Weather History Date:

Sunday, July 28, 2013

  Actual Average Record
Temperature  
Mean Temperature 85 °F -  
Max Temperature 96 °F 105 °F 113 °F (1954)
Min Temperature 75 °F 75 °F 60 °F (1955)
Cooling Degree Days 20    
Growing Degree Days 35 (Base 50)    
Moisture  
Dew Point 57 °F    
Average Humidity 41    
Maximum Humidity 54    
Minimum Humidity 21    
Precipitation  
Precipitation 0.00 in - - ()
Sea Level Pressure  
Sea Level Pressure 29.81 in    
Wind  
Wind Speed 10 mph (NNW)    
Max Wind Speed 37 mph    
Max Gust Speed 52 mph    
Visibility 10 miles    
Events Rain , Thunderstorm    
Averages and records for this station are not official NWS values.
T = Trace of Precipitation, MM = Missing Value Source: NWS Daily Summary

Daily Weather History Graph

Daily Weather History Graph

Search for Another Location

Airport or City:

Trip Planner

Search our weather history database for the weather conditions in past years. The results will help you decide how hot, cold, wet, or windy it might be!

Date:

Astronomy

Jul. 28, 2013 Rise Set
Actual Time 5:44 AM PDT 7:49 PM PDT
Civil Twilight 5:16 AM PDT 8:17 PM PDT
Nautical Twilight 4:41 AM PDT 8:52 PM PDT
Astronomical Twilight 4:03 AM PDT 9:30 PM PDT
Moon 11:28 PM PDT (7/28) 12:17 PM PDT (7/28)
Length of Visible Light 15h 01m
Length of Day
14h 04m
Waning Gibbous, 60% of the Moon is Illuminated
Jul 28
Waning Gibbous
Jul 29
Last Quarter
Aug 6
New
Aug 14
First Quarter
Aug 20
Full

Hourly Weather History & Observations

Time (PDT) Temp. Heat Index Dew Point Humidity Pressure Visibility Wind Dir Wind Speed Gust Speed Precip Events Conditions
12:53 AM 82.9 °F 83.3 °F 61.0 °F 47% 29.82 in 10.0 mi North 4.6 mph - N/A   Clear
1:53 AM 82.9 °F 83.3 °F 61.0 °F 47% 29.82 in 10.0 mi NW 5.8 mph - N/A   Clear
2:53 AM 82.0 °F 82.4 °F 60.1 °F 47% 29.82 in 10.0 mi NW 6.9 mph - N/A   Clear
3:53 AM 80.1 °F 80.7 °F 59.0 °F 48% 29.82 in 10.0 mi NNW 6.9 mph - N/A   Clear
4:53 AM 79.0 °F - 61.0 °F 54% 29.82 in 10.0 mi NNW 8.1 mph - N/A   Clear
5:53 AM 79.0 °F - 61.0 °F 54% 29.83 in 10.0 mi NNW 9.2 mph - N/A   Clear
6:53 AM 81.0 °F 81.9 °F 62.1 °F 52% 29.84 in 10.0 mi NNW 8.1 mph - N/A   Clear
7:53 AM 82.9 °F 83.2 °F 60.1 °F 46% 29.85 in 10.0 mi North 4.6 mph - N/A   Clear
8:53 AM 86.0 °F 85.4 °F 59.0 °F 40% 29.85 in 10.0 mi Calm Calm - N/A   Clear
9:53 AM 89.1 °F 88.2 °F 59.0 °F 36% 29.84 in 10.0 mi North 5.8 mph - N/A   Clear
10:53 AM 90.0 °F 88.6 °F 57.0 °F 33% 29.83 in 10.0 mi SSW 4.6 mph - N/A   Clear
11:53 AM 93.0 °F 90.8 °F 54.0 °F 27% 29.81 in 10.0 mi Variable 3.5 mph - N/A   Clear
12:53 PM 95.0 °F 92.7 °F 54.0 °F 25% 29.78 in 10.0 mi ENE 3.5 mph - N/A   Clear
1:53 PM 93.0 °F 91.7 °F 57.0 °F 30% 29.80 in 10.0 mi SSW 11.5 mph - N/A   Partly Cloudy
2:09 PM 87.8 °F 88.5 °F 62.6 °F 43% 29.84 in 10.0 mi West 21.9 mph 32.2 mph N/A   Mostly Cloudy
2:53 PM 84.0 °F 83.5 °F 57.9 °F 41% 29.79 in 10.0 mi SW 15.0 mph 27.6 mph 0.00 in   Mostly Cloudy
3:53 PM 89.1 °F 88.0 °F 57.9 °F 35% 29.77 in 10.0 mi Calm Calm - N/A   Clear
4:53 PM 95.0 °F - 48.9 °F 21% 29.74 in 10.0 mi West 5.8 mph - N/A   Clear
5:53 PM 89.1 °F - 52.0 °F 28% 29.77 in 10.0 mi North 23.0 mph 29.9 mph N/A   Clear
6:53 PM 86.0 °F - 50.0 °F 29% 29.79 in 8.0 mi NNW 35.7 mph 50.6 mph N/A   Clear
7:53 PM 78.1 °F - 55.9 °F 46% 29.80 in 10.0 mi North 36.8 mph 51.8 mph N/A   Clear
8:21 PM 78.8 °F - 55.4 °F 44% 29.83 in 10.0 mi NNW 24.2 mph 38.0 mph N/A Thunderstorm Thunderstorm
8:33 PM 78.8 °F - 55.4 °F 44% 29.81 in 10.0 mi NNW 23.0 mph 33.4 mph N/A   Clear
8:34 PM 77.0 °F - 57.2 °F 50% 29.81 in 10.0 mi North 23.0 mph 33.4 mph N/A   Clear
8:53 PM 77.0 °F - 57.9 °F 52% 29.79 in 10.0 mi NW 27.6 mph 36.8 mph N/A   Partly Cloudy
9:53 PM 81.0 °F 80.5 °F 54.0 °F 39% 29.83 in 10.0 mi ESE 5.8 mph - 0.00 in Rain Light Rain
10:53 PM 80.1 °F 80.1 °F 55.0 °F 42% 29.82 in 10.0 mi NNW 13.8 mph - 0.00 in   Clear
11:06 PM 75.2 °F - 55.4 °F 50% 29.85 in 10.0 mi NNW 17.3 mph 26.5 mph N/A   Clear
11:53 PM 75.9 °F - 57.0 °F 52% 29.82 in 10.0 mi NNW 18.4 mph 24.2 mph N/A   Clear